[[{"header":{"parameterUnit":"m.s-1","parameterCategory":1,"la1":30.2991,"la2":30.254,"lo1":-89.0895,"lo2":-89.0444,"dx":0.0017,"dy":0.0017,"nx":28,"ny":28,"refTime":"2022-11-16T15:00:00:Z","depth":0,"parameterNumber":2,"parameterNumberName":"U-component_of_WINDS"},"data":[0,0,0,0,0,0,0,0,0,0,0,0,0,0,0,0,0,0,0,0,0,0,0,0,0,0,0,0,0,0,0,0,0,0,0,0,0,0,0,0,0,0,0,0,0,0,0,0,0,0,0,0,0,0,0,0,0,0,0.9468,0.9468,0,0.9411,0.941,0.9409,0.938,0.938,0.938,0.938,0.9319,0.9317,0.9316,0,0,0,0,0,0,0,0,0,0,0,0,0,0.9553,0.9552,0.9469,0.9468,0.9467,0.9411,0.941,0.9409,0.938,0.938,0.938,0.938,0.932,0.9318,0.9316,0,0,0,0,0,0,0,0,0,0,0,0,0,0.9508,0.9551,0.9469,0.9446,0.9443,0.9411,0.941,0.9409,0.938,0.938,0.938,0.938,0.932,0.9318,0.9315,0.9301,0,0,0.9308,0.9307,0,0,0,0,0,0,0,0,0.9511,0.9505,0.945,0.9447,0.9444,0.9402,0.9418,0.9373,0.938,0.9404,0.938,0.938,0.9347,0.9342,0.9331,0.9298,0.9296,0.9308,0.9306,0.9305,0.9305,0,0,0,0,0,0,0,0.9514,0.9507,0.9446,0.9449,0.9446,0.9438,0.9432,0.9409,0.9376,0.9402,0.9399,0.9393,0.9345,0.9334,0.933,0.9295,0.9308,0.9306,0.9304,0.9303,0.9249,0.9249,0,0,0,0,0,0,0.9521,0.951,0.9447,0.9444,0.9478,0.9437,0.9429,0.9416,0.9376,0.937,0.9393,0.9392,0.9338,0.9332,0.9327,0.9309,0.9305,0.9303,0.9302,0.9249,0.9249,0.9249,0,0,0,0,0,0,0.9523,0.9515,0.945,0.9476,0.9467,0.9435,0.942,0.9415,0.9403,0.937,0.9364,0.9387,0.9338,0.9331,0.9308,0.9306,0.9302,0.93,0.9249,0.9249,0.9249,0.9271,0,0,0,0,0,0,0.9525,0.9516,0.9511,0.9476,0.9466,0.9432,0.942,0.9414,0.9399,0.9397,0.9363,0.9357,0.9337,0.9312,0.9306,0.9303,0.9298,0.9249,0.9249,0.9249,0.9271,0.9272,0.9273,0,0,0,0,0,0.9528,0.9518,0.951,0.9503,0.9458,0.9432,0.9426,0.9403,0.9399,0.9393,0.9372,0.9358,0.9308,0.931,0.9303,0.9299,0.9249,0.9249,0.9249,0.927,0.9272,0.9273,0,0,0,0,0,0,0.9552,0.9514,0.9504,0.9483,0.9461,0.9427,0.9418,0.9406,0.9384,0.9383,0.9355,0.9348,0.9328,0.9311,0.9315,0.9284,0.9277,0.9276,0.9295,0.9297,0.9298,0.9302,0.9296,0,0,0,0,0,0.9555,0.9537,0.9504,0.9489,0.9478,0.9451,0.9438,0.9423,0.9399,0.9389,0.9366,0.9343,0.9322,0.9309,0.9287,0.9268,0.9261,0.9262,0.9264,0.9265,0.9264,0.9253,0.9254,0.9249,0.9249,0.9249,0,0,0.9561,0.9537,0.9527,0.9493,0.9474,0.9456,0.9443,0.9424,0.941,0.9386,0.9364,0.9346,0.9319,0.9298,0.9288,0.9284,0.9264,0.9265,0.9266,0.9264,0.9253,0.9254,0.9254,0.9249,0.9249,0.9249,0,0,0.9562,0.9542,0.9528,0.9509,0.9482,0.9463,0.946,0.9428,0.9416,0.9393,0.9375,0.9359,0.9323,0.9304,0.929,0.9286,0.9273,0.928,0.9287,0.9277,0.9277,0.9278,0.9276,0.9276,0.9279,0.9279,0.9279,0,0.9572,0.9544,0.9521,0.9504,0.949,0.9468,0.9453,0.9437,0.9403,0.9394,0.939,0.9345,0.9325,0.9301,0.93,0.9289,0.9285,0.9283,0.9279,0.9279,0.9279,0.9278,0.9277,0.928,0.928,0.928,0.928,0,0.9558,0.9539,0.9531,0.95,0.9485,0.9469,0.9444,0.9431,0.9418,0.9401,0.9378,0.9354,0.9328,0.9321,0.9307,0.9295,0.9293,0.9285,0.9277,0.9281,0.9279,0.9278,0.9282,0.9282,0.9281,0.9281,0,0,0.9571,0.9529,0.9526,0.9513,0.9481,0.9466,0.945,0.9425,0.9415,0.9393,0.9378,0.935,0.9342,0.9326,0.931,0.9302,0.9301,0.9294,0.9293,0.9296,0.9286,0.9293,0.9292,0.9293,0.9292,0.9292,0.9289,0,0.9567,0.9537,0.9517,0.9494,0.9477,0.9457,0.9443,0.9422,0.9406,0.9389,0.937,0.9351,0.9342,0.9332,0.9323,0.9303,0.9299,0.9303,0.9278,0.9278,0.9285,0.9291,0.9297,0.9295,0.9288,0.9288,0.9287,0,0.9558,0.9538,0.9514,0.9486,0.9478,0.9465,0.9442,0.9426,0.9402,0.9391,0.9374,0.9359,0.9341,0.9336,0.9311,0.9314,0.9303,0.9292,0.9292,0.9288,0.9282,0.9287,0.9294,0.9293,0.9286,0.9286,0.9286,0,0.957,0.9537,0.9518,0.9507,0.9473,0.9465,0.9451,0.9427,0.9414,0.9394,0.9385,0.9363,0.935,0.9333,0.9312,0.9311,0.929,0.9283,0.928,0.928,0.9275,0.9276,0.928,0.9269,0.9269,0.9269,0.9269,0,0.9567,0.9554,0.9523,0.9512,0.9496,0.9474,0.9458,0.9442,0.9422,0.9407,0.9389,0.9376,0.9349,0.9332,0.9316,0.9298,0.9293,0.9283,0.9279,0.9284,0.9286,0.9276,0.9276,0.9269,0.9269,0.9269,0.9269,0,0.9577,0.9556,0.9535,0.9506,0.9498,0.9488,0.9463,0.9451,0.9435,0.9416,0.9411,0.9384,0.9364,0.9342,0.9314,0.9303,0.9286,0.928,0.9294,0.9291,0.929,0.929,0.9287,0.9286,0.9277,0.9277,0.9277,0,0.9577,0.9566,0.9536,0.9525,0.9512,0.9494,0.9481,0.9459,0.9446,0.942,0.9412,0.939,0.9372,0.934,0.9319,0.9297,0.9291,0.9291,0.9287,0.9294,0.929,0.9291,0.929,0.9292,0.9292,0.9292,0.9293,0,0.9578,0.9569,0.9551,0.953,0.9515,0.9497,0.9479,0.9471,0.9445,0.9432,0.9411,0.9397,0.937,0.9349,0.9325,0.931,0.9297,0.9294,0.9292,0.9298,0.9306,0.9302,0.9297,0.9294,0.9294,0.9294,0.9294,0.9294,0.9583,0.9573,0.955,0.9531,0.9515,0.9499,0.9487,0.9469,0.9452,0.9428,0.9416,0.9396,0.9374,0.9341,0.9327,0.9311,0.9307,0.9304,0.9303,0.9303,0.9304,0.931,0.9307,0.9307,0.9306,0.9306,0.9306,0,0.9583,0.9568,0.9551,0.9526,0.9512,0.9502,0.9481,0.947,0.9452,0.9433,0.9416,0.9393,0.9373,0.935,0.9329,0.9321,0.9314,0.9316,0.9316,0.9313,0.9309,0.9313,0.9321,0.9321,0.9321,0.9321,0.9321,0.9321,0.9582,0.9564,0.9552,0.9527,0.9512,0.9492,0.9482,0.9466,0.9451,0.9427,0.941,0.9396,0.9376,0.9353,0.9335,0.9329,0.9322,0.9325,0.9317,0.9314,0.9313,0.9312,0.9315,0.9324,0.9324,0.9322,0.9322,0.9322]},{"header":{"parameterUnit":"m.s-1","parameterCategory":1,"la1":30.2991,"la2":30.254,"lo1":-89.0895,"lo2":-89.0444,"dx":0.0017,"dy":0.0017,"nx":28,"ny":28,"refTime":"2022-11-16T15:00:00:Z","depth":0,"parameterNumber":3,"parameterNumberName":"V-component_of_WINDS"},"data":[0,0,0,0,0,0,0,0,0,0,0,0,0,0,0,0,0,0,0,0,0,0,0,0,0,0,0,0,0,0,0,0,0,0,0,0,0,0,0,0,0,0,0,0,0,0,0,0,0,0,0,0,0,0,0,0,0,0,-7.0866,-7.0867,0,-7.0998,-7.0999,-7.1001,-7.0955,-7.0952,-7.0949,-7.0946,-7.1076,-7.1082,-7.1088,0,0,0,0,0,0,0,0,0,0,0,0,0,-7.0568,-7.0574,-7.0865,-7.0867,-7.0869,-7.0998,-7.0999,-7.1001,-7.0955,-7.0952,-7.0948,-7.0945,-7.1074,-7.1081,-7.1089,0,0,0,0,0,0,0,0,0,0,0,0,0,-7.0698,-7.0576,-7.0865,-7.0862,-7.0863,-7.0997,-7.1,-7.1002,-7.0956,-7.0952,-7.0947,-7.0943,-7.1072,-7.1081,-7.109,-7.1234,0,0,-7.1118,-7.1122,0,0,0,0,0,0,0,0,-7.0691,-7.0709,-7.086,-7.0862,-7.0863,-7.0956,-7.0942,-7.1079,-7.0957,-7.092,-7.0946,-7.0941,-7.1039,-7.1051,-7.1085,-7.124,-7.1246,-7.1119,-7.1124,-7.1128,-7.1131,0,0,0,0,0,0,0,-7.0682,-7.0703,-7.0918,-7.0863,-7.0865,-7.0852,-7.0865,-7.0968,-7.1002,-7.0923,-7.092,-7.0937,-7.1039,-7.1076,-7.1088,-7.1248,-7.1119,-7.1127,-7.1133,-7.1136,-7.1528,-7.1533,0,0,0,0,0,0,-7.0673,-7.0696,-7.0913,-7.0922,-7.0765,-7.0861,-7.0876,-7.093,-7.1001,-7.1008,-7.0941,-7.0934,-7.1063,-7.1077,-7.1092,-7.1266,-7.1128,-7.1137,-7.1142,-7.1524,-7.153,-7.1535,0,0,0,0,0,0,-7.0667,-7.0693,-7.0908,-7.0808,-7.0835,-7.087,-7.0932,-7.0935,-7.0972,-7.1014,-7.102,-7.0973,-7.106,-7.1079,-7.12,-7.127,-7.1141,-7.115,-7.1518,-7.1525,-7.1532,-7.1616,0,0,0,0,0,0,-7.0658,-7.0691,-7.0747,-7.081,-7.084,-7.1015,-7.0936,-7.0941,-7.0989,-7.0982,-7.1046,-7.1052,-7.1058,-7.1186,-7.1209,-7.1281,-7.1157,-7.1512,-7.1521,-7.153,-7.1607,-7.1625,-7.164,0,0,0,0,0,-7.0648,-7.0764,-7.075,-7.0777,-7.0912,-7.1019,-7.1037,-7.1043,-7.0995,-7.1051,-7.1078,-7.105,-7.1259,-7.1199,-7.1224,-7.13,-7.1507,-7.1519,-7.1529,-7.1599,-7.1621,-7.164,0,0,0,0,0,0,-7.0706,-7.0772,-7.0758,-7.0898,-7.0954,-7.1012,-7.1083,-7.1066,-7.1135,-7.1125,-7.1128,-7.1142,-7.1267,-7.1295,-7.1227,-7.1443,-7.1376,-7.1392,-7.142,-7.1442,-7.1458,-7.1449,-7.1165,0,0,0,0,0,-7.0736,-7.082,-7.0872,-7.099,-7.1019,-7.1047,-7.1094,-7.1094,-7.1151,-7.1173,-7.1209,-7.1264,-7.1342,-7.1393,-7.1467,-7.1611,-7.1624,-7.1675,-7.1692,-7.1705,-7.1719,-7.1797,-7.1821,-7.1571,-7.1571,-7.157,0,0,-7.0797,-7.0843,-7.0895,-7.1003,-7.1047,-7.1132,-7.1066,-7.1159,-7.1222,-7.1187,-7.1304,-7.1332,-7.1393,-7.1526,-7.1587,-7.1554,-7.1792,-7.1719,-7.173,-7.1737,-7.1811,-7.1835,-7.1856,-7.1578,-7.1577,-7.1576,0,0,-7.0952,-7.0996,-7.11,-7.1145,-7.1213,-7.123,-7.1255,-7.1316,-7.1334,-7.1452,-7.1428,-7.1502,-7.1636,-7.1681,-7.1722,-7.1896,-7.1872,-7.1919,-7.2007,-7.2083,-7.2103,-7.212,-7.2182,-7.2205,-7.1933,-7.1934,-7.1934,0,-7.1019,-7.1148,-7.1155,-7.1251,-7.1298,-7.1273,-7.1378,-7.142,-7.1508,-7.1541,-7.1503,-7.1672,-7.1712,-7.1855,-7.1898,-7.1931,-7.1959,-7.1912,-7.21,-7.2118,-7.2134,-7.2193,-7.2216,-7.1939,-7.1938,-7.1938,-7.1937,0,-7.1227,-7.1317,-7.1393,-7.1481,-7.1537,-7.1637,-7.1657,-7.1713,-7.1708,-7.1729,-7.1849,-7.1896,-7.198,-7.2014,-7.2009,-7.2157,-7.2134,-7.2099,-7.2031,-7.2163,-7.2219,-7.2241,-7.1947,-7.1945,-7.1943,-7.1942,0,0,-7.1421,-7.1513,-7.1541,-7.1581,-7.1654,-7.1723,-7.1821,-7.1905,-7.1953,-7.2014,-7.2096,-7.2211,-7.2179,-7.2225,-7.2225,-7.2292,-7.2427,-7.2248,-7.2249,-7.2279,-7.2592,-7.2619,-7.2645,-7.2412,-7.2416,-7.242,-7.2587,0,-7.1583,-7.1758,-7.1767,-7.1925,-7.2008,-7.1986,-7.2071,-7.2124,-7.2147,-7.2219,-7.2243,-7.2325,-7.2276,-7.2304,-7.237,-7.2397,-7.249,-7.2385,-7.2487,-7.249,-7.2472,-7.2674,-7.2702,-7.2858,-7.2609,-7.2613,-7.2615,0,-7.1794,-7.1864,-7.2032,-7.2094,-7.2129,-7.2206,-7.2284,-7.2354,-7.2414,-7.2426,-7.2478,-7.2469,-7.2568,-7.2498,-7.2634,-7.2563,-7.2605,-7.2625,-7.2631,-7.264,-7.2561,-7.2689,-7.2908,-7.2931,-7.2649,-7.2647,-7.2644,0,-7.1919,-7.2056,-7.2174,-7.2208,-7.2284,-7.2339,-7.2372,-7.2428,-7.2478,-7.2546,-7.2578,-7.2655,-7.2698,-7.2757,-7.2769,-7.2717,-7.2906,-7.2836,-7.2917,-7.2917,-7.2957,-7.2955,-7.3186,-7.2985,-7.2985,-7.2984,-7.2984,0,-7.2098,-7.2201,-7.2231,-7.2304,-7.2418,-7.2428,-7.254,-7.257,-7.262,-7.2697,-7.2681,-7.2753,-7.2764,-7.2839,-7.2848,-7.2959,-7.2978,-7.299,-7.2991,-7.2991,-7.299,-7.3019,-7.3008,-7.299,-7.2989,-7.2988,-7.2987,0,-7.2257,-7.2282,-7.2409,-7.2471,-7.2489,-7.2571,-7.2623,-7.2692,-7.2713,-7.281,-7.2834,-7.2866,-7.2953,-7.2971,-7.3073,-7.3079,-7.3212,-7.3202,-7.3193,-7.3192,-7.3272,-7.3264,-7.353,-7.3565,-7.3341,-7.3343,-7.3345,0,-7.237,-7.2449,-7.252,-7.2572,-7.2609,-7.2692,-7.2744,-7.2755,-7.281,-7.2885,-7.2944,-7.303,-7.3099,-7.3238,-7.327,-7.3348,-7.334,-7.3428,-7.3352,-7.335,-7.3342,-7.3337,-7.3345,-7.3442,-7.3445,-7.3447,-7.3448,0,-7.2567,-7.2575,-7.2652,-7.2734,-7.2796,-7.286,-7.2921,-7.2964,-7.2983,-7.3045,-7.3135,-7.3189,-7.3295,-7.3379,-7.3458,-7.349,-7.3473,-7.3472,-7.3495,-7.3496,-7.3488,-7.3493,-7.3233,-7.3466,-7.3464,-7.3463,-7.3462,-7.3461,-7.2706,-7.2776,-7.2838,-7.2923,-7.2971,-7.3029,-7.3097,-7.3128,-7.3204,-7.3292,-7.3294,-7.3392,-7.345,-7.3554,-7.3591,-7.3667,-7.3639,-7.3672,-7.3681,-7.3689,-7.3696,-7.3476,-7.3681,-7.3681,-7.368,-7.368,-7.368,0,-7.2902,-7.2942,-7.3021,-7.3108,-7.3175,-7.3155,-7.3222,-7.3279,-7.3366,-7.3423,-7.3492,-7.3595,-7.3678,-7.3717,-7.3798,-7.3851,-7.3845,-7.3872,-7.3868,-7.3876,-7.3716,-7.3689,-7.3876,-7.3876,-7.3876,-7.3876,-7.3876,-7.3876,-7.3013,-7.313,-7.3146,-7.3287,-7.3324,-7.3422,-7.3462,-7.3515,-7.356,-7.3677,-7.3747,-7.3772,-7.3822,-7.3907,-7.3981,-7.399,-7.4021,-7.4052,-7.4057,-7.3907,-7.3887,-7.3868,-7.3842,-7.4058,-7.4058,-7.421,-7.4212,-7.4213]}]]